GW5208 Weather Reports


Display with metric or nautical units.
time (UTC)temp
F
wind
direction
speed
MPH
gust
MPH
rain 1hr
in
rain 24hr
in
rain mn
in
humidity
%
barometer
mb
20260506213010 71 262 5.0 11.0 0.00 0.00 0.00 19 1009.5
20260506211518 69 359 1.0 4.0 0.00 0.00 0.00 21 1009.8
20260506210022 69 360 2.0 9.0 0.00 0.00 0.00 19 1010.0
20260506204506 69 352 4.0 12.0 0.00 0.00 0.00 20 1010.2
20260506203019 68 283 5.0 10.0 0.00 0.00 0.00 21 1010.3
20260506201514 68 332 4.0 13.0 0.00 0.00 0.00 20 1010.6
20260506200021 67 237 2.0 9.0 0.00 0.00 0.00 21 1010.7
20260506194524 65 342 3.0 9.0 0.00 0.00 0.00 23 1011.1
20260506193008 64 253 3.0 11.0 0.00 0.00 0.00 22 1011.4
20260506191513 64 298 4.0 8.0 0.00 0.00 0.00 23 1011.8
20260506190025 63 294 7.0 11.0 0.00 0.00 0.00 24 1012.1
20260506184522 62 288 3.0 10.0 0.00 0.00 0.00 24 1012.3
20260506183026 61 212 2.0 4.0 0.00 0.00 0.00 26 1012.5
20260506181515 61 233 5.0 10.0 0.00 0.00 0.00 23 1012.9
20260506180016 59 249 2.0 8.0 0.00 0.00 0.00 24 1013.1
20260506174522 58 156 4.0 9.0 0.00 0.00 0.00 25 1013.5
20260506173025 57 262 5.0 9.0 0.00 0.00 0.00 25 1013.8
20260506171510 56 256 4.0 8.0 0.00 0.00 0.00 22 1014.0
20260506170016 54 230 4.0 9.0 0.00 0.00 0.00 25 1014.3
20260506164518 53 278 5.0 8.0 0.00 0.00 0.00 24 1014.6
20260506163022 52 254 3.0 6.0 0.00 0.00 0.00 30 1014.7
20260506161526 50 171 3.0 8.0 0.00 0.00 0.00 32 1015.0
20260506160014 49 154 2.0 7.0 0.00 0.00 0.00 34 1015.3
20260506154518 47 145 3.0 7.0 0.00 0.00 0.00 38 1015.4
20260506153021 46 243 3.0 5.0 0.00 0.00 0.00 40 1015.7
20260506151525 44 31 0.0 5.0 0.00 0.00 0.00 46 1015.9
20260506150027 42 231 1.0 4.0 0.00 0.00 0.00 48 1016.1
20260506144520 41 236 2.0 5.0 0.00 0.00 0.00 49 1016.1
20260506143025 39 202 0.0 4.0 0.00 0.00 0.00 52 1016.4
20260506141533 38 201 2.0 4.0 0.00 0.00 0.00 55 1016.6
20260506140026 36 238 1.0 4.0 0.00 0.00 0.00 60 1016.8
20260506134527 32 149 0.0 2.0 0.00 0.00 0.00 63 1016.8
20260506133020 30 149 1.0 2.0 0.00 0.00 0.00 59 1016.7
20260506131526 29 149 0.0 0.0 0.00 0.00 0.00 59 1016.9
20260506130026 27 149 0.0 0.0 0.00 0.00 0.00 62 1016.9
20260506124525 25 149 0.0 0.0 0.00 0.00 0.00 61 1017.0
20260506123029 23 149 0.0 0.0 0.00 0.00 0.00 59 1017.0
20260506121525 22 149 0.0 0.0 0.00 0.00 0.00 58 1017.2
20260506120028 22 149 0.0 0.0 0.00 0.00 0.00 59 1017.3
20260506114510 22 149 0.0 0.0 0.00 0.00 0.00 59 1017.5
20260506113015 22 149 0.0 0.0 0.00 0.00 0.00 62 1017.5
20260506111517 21 149 0.0 0.0 0.00 0.00 0.00 59 1017.6
20260506110022 22 149 0.0 0.0 0.00 0.00 0.00 60 1017.7
20260506104507 22 149 0.0 0.0 0.00 0.00 0.00 59 1018.0
20260506103010 22 149 0.0 0.0 0.00 0.00 0.00 57 1018.1
20260506101518 23 149 0.0 0.0 0.00 0.00 0.00 61 1018.2
20260506100020 23 149 0.0 2.0 0.00 0.00 0.00 57 1018.4
20260506094524 24 149 0.0 0.0 0.00 0.00 0.00 54 1018.5
20260506093028 25 149 0.0 2.0 0.00 0.00 0.00 55 1018.6
20260506091517 26 149 0.0 0.0 0.00 0.00 0.00 55 1018.7
20260506090023 28 149 0.0 0.0 0.00 0.00 0.00 53 1018.8
20260506084533 28 149 0.0 2.0 0.00 0.00 0.00 53 1019.0
20260506083025 28 149 1.0 2.0 0.00 0.00 0.00 53 1019.1
20260506081525 27 149 0.0 0.0 0.00 0.00 0.00 54 1019.2
20260506073024 29 147 1.0 2.0 0.00 0.00 0.00 52 1019.7
20260506071529 30 144 0.0 2.0 0.00 0.00 0.00 52 1019.8
20260506061527 32 105 0.0 2.0 0.00 0.00 0.00 45 1019.7
20260506044524 35 76 0.0 2.0 0.00 0.00 0.00 42 1020.0
20260506043022 36 76 1.0 2.0 0.00 0.00 0.00 41 1020.1
20260506041528 37 76 0.0 2.0 0.00 0.00 0.00 40 1020.2
20260506040029 37 76 0.0 2.0 0.00 0.00 0.00 40 1020.2
20260506034531 38 76 1.0 3.0 0.00 0.00 0.00 39 1020.1
20260506033015 39 76 2.0 3.0 0.00 0.00 0.00 38 1020.1
20260506031519 40 70 1.0 3.0 0.00 0.00 0.00 37 1020.1
20260506030024 41 67 2.0 4.0 0.00 0.00 0.00 35 1020.0
20260506024528 43 59 2.0 4.0 0.00 0.00 0.00 35 1019.8
20260506023026 44 50 4.0 7.0 0.00 0.00 0.00 33 1019.8
20260506021517 46 27 5.0 9.0 0.00 0.00 0.00 31 1019.7
20260506020022 47 32 3.0 7.0 0.00 0.00 0.00 30 1019.8
20260506014524 47 32 4.0 9.0 0.00 0.00 0.00 29 1019.7
20260506013032 48 3 4.0 8.0 0.00 0.00 0.00 28 1019.7
20260506011539 49 11 3.0 9.0 0.00 0.00 0.00 29 1019.6
20260506010022 49 32 5.0 15.0 0.00 0.00 0.00 29 1019.6
20260506004536 50 342 6.0 11.0 0.00 0.00 0.00 27 1019.6
20260506003029 50 25 5.0 13.0 0.00 0.00 0.00 28 1019.5
20260506001531 50 359 5.0 14.0 0.00 0.00 0.00 28 1019.5
20260506000028 50 52 5.0 11.0 0.00 0.00 0.00 26 1019.5
20260505234524 50 335 6.0 13.0 0.00 0.00 0.00 28 1019.5
20260505233033 50 323 7.0 13.0 0.00 0.00 0.00 28 1019.5
20260505231537 50 41 5.0 13.0 0.00 0.00 0.00 27 1019.4
20260505230028 51 51 6.0 13.0 0.00 0.00 0.00 26 1019.4
20260505224520 51 38 4.0 14.0 0.00 0.00 0.00 26 1019.4
20260505223005 51 328 7.0 15.0 0.00 0.00 0.00 26 1019.5
20260505221510 52 47 5.0 13.0 0.00 0.00 0.00 26 1019.5
20260505220036 51 50 5.0 13.0 0.00 0.00 0.00 26 1019.5
20260505214525 50 295 7.0 12.0 0.00 0.00 0.00 26 1019.5